Regional Weather Roundup
Issued by NWS

Home | Current Version | Previous Version | Graphics & Text | Print | Product List | Glossary On
Versions: 1 2 3 4 5 6 7 8 9 10 11 12 13 14 15 16 17 18 19 20 21 22 23 24 25 26 27 28 29 30 31 32 33 34 35 36 37 38 39 40 41 42 43 44 45 46 47 48 49 50
000
ASUS43 KMPX 241601
RWRMN
WEATHER ROUNDUP FOR MINNESOTA
NATIONAL WEATHER SERVICE TWIN CITIES/CHANHASSEN MN
1100 AM CDT FRI MAR 24 2017


NOTE: "FAIR" INDICATES FEW OR NO CLOUDS BELOW 12,000 FEET WITH NO
SIGNIFICANT WEATHER AND/OR OBSTRUCTIONS TO VISIBILITY. N/A MEANS
CURRENT SKY AND/OR WEATHER CONDITIONS ARE NOT AVAILABLE.

MNZ060>063-068>070-241700-
   Twin Cities Metro

CITY           SKY/WX    TMP DP  RH WIND       PRES   REMARKS
TWIN CITIES    CLOUDY    39  35  86 N10       30.01R
ST PAUL        CLOUDY    39  37  92 N10       30.02R FOG
CRYSTAL        CLOUDY    39  34  82 N10       30.01R
BLAINE         CLOUDY    39  39 100 N10       30.01R
LAKEVILLE      DRIZZLE   37  37 100 N8        29.99R
EDEN PRAIRIE   CLOUDY    40  36  86 N10       29.99R FOG
SOUTH ST PAUL  CLOUDY    39  37  92 N8        30.00R
LAKE ELMO      CLOUDY    37  36  93 N5        30.01R FOG
$$
MNZ001>005-007-008-013>017-022>024-027-028-241700-
   Northwest Minnesota

CITY           SKY/WX    TMP DP  RH WIND       PRES   REMARKS
BEMIDJI        CLOUDY    33  31  90 N9        30.08R WCI  26
HALLOCK        CLOUDY    32  28  86 N14       30.18R WCI  22
ROSEAU         MOSUNNY   34  27  75 N14       30.14R WCI  24
WARROAD        SUNNY     36  27  69 N15       30.14R
THIEF RVR FALL CLOUDY    34  27  75 N15       30.14R WCI  24
CROOKSTON      CLOUDY    32  28  86 N14       30.16R WCI  22
FOSSTON        CLOUDY    30  28  93 N9        30.11R WCI  22
DETROIT LAKES  CLOUDY    36  32  87 NE9       30.09R
MOORHEAD       CLOUDY    36  30  80 N16       30.14R
PARK RAPIDS      N/A     37  29  72 N13G21    30.06R
MAHNOMEN       CLOUDY    34  31  88 N13       30.10R WCI  25
$$
MNZ006-009>011-018-025>026-241700-
   North Central Minnesota

CITY           SKY/WX    TMP DP  RH WIND       PRES   REMARKS
BAUDETTE       MOSUNNY   35  28  75 NW12      30.10R WCI  27
FLAG ISLAND    CLOUDY    32  25  74 N12       30.14R WCI  23
INTL FALLS     CLOUDY    37  30  75 N8        30.08R
WASKISH        PTSUNNY   37  30  75 N7        30.09R
BIG FORK       CLOUDY    37  34  87 N7        30.05R
LONGVILLE      CLOUDY    36  34  93 NE5       30.05R
GRAND RAPIDS   CLOUDY    35  33  92 N7        30.06R WCI  29
CRANE LAKE     CLOUDY    34  32  93 N3        30.08R
ORR            CLOUDY    36  30  80 CALM      30.03R
COOK           CLOUDY    34  34 100 N3        30.04R FOG
WALKER         CLOUDY    35  32  89 N7        30.06R WCI  29
$$
MNZ012-019>021-037-241700-
   Northeast Minnesota

CITY           SKY/WX    TMP DP  RH WIND       PRES   REMARKS
DULUTH         CLOUDY    34  33  96 N9        30.02R FOG     WCI  27
ELY            CLOUDY    34  34 100 CALM      30.03R FOG
HIBBING        CLOUDY    33  32  96 N7        30.03R FOG     WCI  27
EVELETH        CLOUDY    34  32  92 N6        30.04R FOG     WCI  29
DULUTH HARBOR  CLOUDY    37  36  93 CALM      30.05R
TWO HARBORS    CLOUDY    37  34  87 N5        30.01R HAZE
SILVER BAY     CLOUDY    36  34  93 N3        30.02R FOG
GRAND MARAIS     N/A     39  33  79 CALM      30.02R
G MARAIS ARPRT CLOUDY    34  28  80 N8        29.99R HAZE    WCI  27
$$
MNZ029>031-032-039>041-046>048-054>057-064-241700-
   West Central Minnesota

CITY           SKY/WX    TMP DP  RH WIND       PRES   REMARKS
FERGUS FALLS   CLOUDY    36  34  93 NE7       30.13R
WHEATON        CLOUDY    36  34  93 N9        30.13R
MORRIS         CLOUDY    37  36  93 N12       30.07R FOG
ALEXANDRIA     CLOUDY    36  34  92 NE13      30.07R
ELBOW LAKE     CLOUDY    35  33  93 NE7       30.09R FOG     WCI  29
WADENA           N/A    N/A N/A N/A MISG      30.07R
GLENWOOD       CLOUDY    36  36 100 N10       30.07R FOG
APPLETON       CLOUDY    41  36  81 N15       30.07R
BENSON         CLOUDY    43  36  75 NE12      30.08R
ORTONVILLE     CLOUDY    37  36  93 N16       30.08R
MADISON        CLOUDY    41  41 100 N14G20    30.07R
WILLMAR        FAIR      39  39 100 NE12G17   30.05R
$$
MNZ033>034-036-042>043-049>051-058-059-241700-
   Central Minnesota

CITY           SKY/WX    TMP DP  RH WIND       PRES   REMARKS
ST CLOUD       CLOUDY    40  36  86 N12       30.04R
SAUK CENTRE    CLOUDY    36  33  91 N10G17    30.07R FOG
PAYNESVILLE      N/A     40  39  97 N9        30.05R
AITKIN         CLOUDY    39  34  81 N7        30.03R HAZE
PINE RIVER     CLOUDY    36  32  87 N10       30.09R
BRAINERD       CLOUDY    35  33  92 N13       30.06R FOG     WCI  26
STAPLES        CLOUDY    34  34 100 N7        30.06R WCI  28
LONG PRAIRIE   CLOUDY    34  32  93 NW12      30.06R WCI  25
LITTLE FALLS   CLOUDY    36  34  93 N7        30.06R FOG
LITCHFIELD     CLOUDY    39  37  93 N9        30.02S
BUFFALO        CLOUDY    38  35  86 N8        30.03R
MAPLE LAKE     CLOUDY    39  38  93 N9        30.03R
HUTCHINSON     CLOUDY    39  37  90 N10       30.02R
$$
MNZ037-044-045-052-053-241700-
   East Central Minnesota

CITY           SKY/WX    TMP DP  RH WIND       PRES   REMARKS
PRINCETON      MOSUNNY   41  37  87 N8        30.03R
MORA           CLOUDY    37  32  81 N5        30.04R
CAMBRIDGE      MOSUNNY   43  34  70 N7        30.01R
RUSH CITY      CLOUDY    40  36  86 N12G17    30.03R
MOOSE LAKE     CLOUDY    36  32  87 N12       30.01R
HINCKLEY       CLOUDY    37  36  93 N7        30.02R
CLOQUET        CLOUDY    36  32  87 N8        30.02R FOG
MCGREGOR       CLOUDY    34  34 100 N8        30.04R WCI  27
$$
MNZ071>073-080-081-089-090-097-098-241700-
   Southwest Minnesota

CITY           SKY/WX    TMP DP  RH WIND       PRES   REMARKS
MONTEVIDEO     CLOUDY    39  37  93 NE13      30.07R
GRANITE FALLS  CLOUDY    41  37  86 N10       30.06R
CANBY          CLOUDY    38  37  93 N13       30.09R
MARSHALL       CLOUDY    38  35  89 N15       30.05R
REDWOOD FALLS  CLOUDY    39  35  86 N14       30.02R
OLIVIA         CLOUDY    39  36  87 N17       30.01S
PIPESTONE      CLOUDY    36  32  87 NE22      29.98F
WINDOM         CLOUDY    37  37 100 N18       29.96F FOG
WORTHINGTON    CLOUDY    36  35  96 N17G25    29.98R FOG
JACKSON        CLOUDY    36  36 100 N17G24    29.96F FOG
TRACY          CLOUDY    37  37 100 N17       30.02R FOG
SLAYTON        CLOUDY    34  34 100 N21       29.99F FOG     WCI  23
$$
MNZ065>067-074>077-082>085-091>093-241700-
   South Central Minnesota

CITY           SKY/WX    TMP DP  RH WIND       PRES   REMARKS
MANKATO        CLOUDY    39  37  92 N13       29.98R FOG
NEW ULM        CLOUDY    37  36  93 NE10      30.02R
ST JAMES       CLOUDY    37  37 100 N13       29.99R
FAIRMONT       LGT RAIN  38  37  97 N17       29.95R VSB 3/4
GLENCOE        CLOUDY    38  38 100 N8        30.00R
FARIBAULT      DRIZZLE   37  37 100 N7        29.98R
OWATONNA       RAIN      39  37  93 N7        29.95F
WASECA         DRIZZLE   37  36  93 N12       29.96F
ALBERT LEA     CLOUDY    37  37 100 N12       29.93R FOG
$$
MNZ078>079-086>088-094>096-241700-
   Southeast Minnesota

CITY           SKY/WX    TMP DP  RH WIND       PRES   REMARKS
ROCHESTER      RAIN      38  38 100 N12       29.94R FOG
RED WING       DRIZZLE   41  37  87 CALM      29.97R
STANTON        DRIZZLE   39  37  91 N8        29.98R
DODGE CENTER   LGT RAIN  37  37 100 N9        29.95R
WINONA         CLOUDY    41  37  87 N3        29.95R
AUSTIN         LGT RAIN  39  37  93 N13G21    29.89F
PRESTON        LGT RAIN  38  37  94 N6        29.92R
$$
ABBREVIATIONS USED IN REMARKS
   TC - TEMPERATURES IN CELSIUS
  WCI - WIND CHILL INDEX
   HX - HEAT INDEX
  VSB - VISIBILITY
$$




USA.gov is the U.S. government's official web portal to all federal, state and local government web resources and services.